Regional Weather Roundup
Issued by NWS

Home | Current Version | Previous Version | Text Only | Print | Product List | Glossary On
Versions: 1 2 3 4 5 6 7 8 9 10 11 12 13 14 15 16 17 18 19 20 21 22 23 24 25 26 27 28 29 30 31 32 33 34 35 36 37 38 39 40 41 42 43 44 45 46 47 48 49 50
000
ASUS45 KTFX 281810
RWRMT
MONTANA REGIONAL WEATHER ROUNDUP
NATIONAL WEATHER SERVICE GREAT FALLS MT
1200 PM MDT SAT MAY 28 2016

NOTE: "FAIR" INDICATES FEW OR NO CLOUDS BELOW 12000 FEET WITH NO
SIGNIFICANT WEATHER AND/OR OBSTRUCTIONS TO VISIBILITY.

MTZ001>007-043-281900-
WEST OF THE DIVIDE

CITY           SKY/WX    TMP DP  RH WIND       PRES   REMARKS
KALISPELL      CLOUDY    54  36  50 S10       30.01S
MISSOULA       CLOUDY    54  33  45 CALM      30.06S
BUTTE          CLOUDY    51  29  42 W8        30.04S
MULLAN PASS    CLOUDY    40  27  59 CALM      30.06R
ANACONDA         N/A     48  32  53 N7        30.04S
DEER LODGE       N/A     48  30  49 CALM      30.06S
EUREKA           N/A     55  34  44 CALM      30.00F
HAMILTON         N/A     55  28  35 W5        30.05S
LIBBY            N/A     55  28  35 W7        30.03S
$$

MTZ008-052>055-281900-
SOUTHWEST MONTANA

CITY           SKY/WX    TMP DP  RH WIND       PRES   REMARKS
BOZEMAN        CLOUDY    55  39  54 N6        30.04R
DILLON         CLOUDY    50  39  66 NE5       30.02S
W YELLOWSTONE  CLOUDY    46  30  53 SW17G29   30.09S
ENNIS          PTSUNNY   52  39  62 S10G16    30.09S
$$

MTZ009-010-012-014-046-048-049-054-281900-
EAST SLOPES AND CENTRAL MONTANA

CITY           SKY/WX    TMP DP  RH WIND       PRES   REMARKS
CUT BANK       CLOUDY    54  29  38 NW13      29.94S
GREAT FALLS    MOSUNNY   57  25  29 W17G25    29.98S
MALMSTROM AFB  SUNNY     57  25  29 W18G26    29.98S
HELENA         CLOUDY    58  30  34 NW17G26   30.00F
CHOTEAU          N/A     57  27  30 W16G23    29.98S
$$

MTZ011-013-016-021-045-047-050-051-281900-
NORTH CENTRAL MONTANA

CITY           SKY/WX    TMP DP  RH WIND       PRES   REMARKS
HAVRE          SUNNY     61  36  39 SW20      29.92S
LEWISTOWN      SUNNY     58  32  37 NW10G18   29.98S
N BAR RANCH    CLOUDY    57  32  38 NW10G18   29.99S
CHINOOK          N/A     61  34  36 SW14G20   29.92S
$$

MTZ017>020-022>027-061-062-281900-
NORTHEAST MONTANA

CITY           SKY/WX    TMP DP  RH WIND       PRES   REMARKS
GLASGOW        MOSUNNY   59  51  75 NW12      29.91S
JORDAN           N/A     64  48  56 NW13      29.93S
SIDNEY         PTSUNNY   66  53  63 NW7       29.86F
WOLF POINT     CLOUDY    61  55  81 W8        29.89S
PLENTYWOOD       N/A     59  54  82 E9        29.90F
POPLAR           N/A     63  52  67 W9        29.89R
$$

MTZ028>42-056>058-281900-
SOUTHCENTRAL AND SOUTHEAST MONTANA

CITY           SKY/WX    TMP DP  RH WIND       PRES   REMARKS
BAKER          PTSUNNY   66  51  58 W18G24    29.92R
BILLINGS       PTSUNNY   59  42  53 W7        29.99S
LIVINGSTON     LGT RAIN  51  43  74 W7        30.01S
MILES CITY     MOSUNNY   65  48  54 W9        29.93F
FORSYTH          N/A     63  45  51 W9        29.95S
$$

REGIONAL REPORTS...DAKOTAS

CITY           SKY/WX    TMP DP  RH WIND       PRES   REMARKS
WILLISTON      PTSUNNY   66  53  63 NE8       29.89S
MINOT          CLOUDY    64  53  67 CALM      29.90S
DICKINSON      PTSUNNY   69  45  41 S5        29.85F
BEACH          PTSUNNY   66  46  48 W17G25    29.90S
CROSBY         CLOUDY    55  55 100 E9        29.94S
WATFORD CITY     N/A     66  52  59 SE7       29.88F
BISMARCK       PTSUNNY   68  54  60 NE3       29.87F
GRAND FORKS    CLOUDY    70  54  56 N8        29.82F
FARGO          MOSUNNY   71  56  58 N14       29.79F
BUFFALO SD       N/A     69  47  45 VRB3      29.84F
RAPID CITY     MOSUNNY   70  47  43 N6        29.91S
$$

REGIONAL REPORTS...WYOMING/IDAHO/WASHINGTON

CITY           SKY/WX    TMP DP  RH WIND       PRES   REMARKS
GILLETTE       CLOUDY    63  46  54 VRB7      29.97S
SHERIDAN       LGT RAIN  56  47  71 NW8       30.00S
BUFFALO WY     CLOUDY    57  45  64 N10       30.02S
CODY           SUNNY     55  43  62 N6        29.99F
YELLOWSTONE LA   N/A     45  25  45 VRB7      30.12R
IDAHO FALLS    MOSUNNY   56  34  43 SW15      30.07S
SALMON         PTSUNNY   55  34  44 N7        30.01F
BOISE          SUNNY     60  29  30 NW9       30.09F
SPOKANE        PTSUNNY   54  35  48 SW6       30.06F
$$

REGIONAL REPORTS...ALBERTA

CITY           SKY/WX    TMP DP  RH WIND       PRES   REMARKS
EDMONTON       PTSUNNY   55  41  58 W8        29.85S
CALGARY        PTSUNNY   57  32  38 VRB7      29.87F
LETHBRIDGE     MOSUNNY   61  32  33 W22G31    29.90S
MEDICINE HAT   PTSUNNY   59  43  55 NW7       29.87F
WATERTON GATE    N/A     54  30  40 SW23G33     N/A
CARDSTON         N/A     55  34  44 W12G18      N/A
MILK RIVER       N/A     57  28  33 W10         N/A
$$

REGIONAL REPORTS...SASKATCHEWAN

CITY           SKY/WX    TMP DP  RH WIND       PRES   REMARKS
SWIFT CURRENT  RAIN      48  45  87 W16       29.89S
REGINA         CLOUDY    59  50  72 SE10      29.92S
SASKATOON      CLOUDY    55  50  82 SE9       29.93F
CYPRESS HILLS    N/A     52  37  58 NW6         N/A
VAL MARIE        N/A     59  48  67 NW8         N/A
ROCKGLEN         N/A     52  50  93 NW3         N/A
$$



USA.gov is the U.S. government's official web portal to all federal, state and local government web resources and services.